User: anonymous   Login
Location: *
(43.4667°N, 11.6833°E)
Time: 00:57:51
(UTC+00:00)
Language:

BREEZE-M DEB (TANK) - Orbit

View from above orbital plane
View from above orbital plane
View from above satellite
View from above satellite

Ground track
Ground track

The orbit data is extracted from the following two-line orbital elements,

1 29528U 06051C   19288.63729464  .00000105  00000-0  50017-3 0  9999
2 29528  51.1065 184.9390 6046132  76.1571 265.9427  3.64256499172103
Epoch (UTC): 15 October 2019 15:17:42
Eccentricity: 0.6046132
inclination: 51.1065°
perigee height: 676 km
apogee height: 22252 km
right ascension of ascending node: 184.9390°
argument of perigee: 76.1571°
revolutions per day: 3.64256499
mean anomaly at epoch: 265.9427°
orbit number at epoch: 17210

The dashed part of the orbit path shows where the satellite is in the earth's shadow,  

DLR